TUI3FB LEPA-EDDV

Flight info

Callsign TUI3FB
Flight time 1h 54m
Altitude 34000
Route MEROS N853 LUMAS DCT MAXIR DCT LUSOL DCT BODRU DCT OKTET DCT IRMAR DCT KINES DCT VANAS DCT ESOKO DCT GODRA/N0452F350 DCT LOKTA DCT TEDGO DCT HAREM DCT LOHRE DCT MASEK Z99 ELNAT P605 WERRA WERRA1Z
Aircraft B38M/M-SDE1FGHILORVWXY/HB1

Departure

Time 2026-05-06 13:44
Airport Palma de Mallorca Airport (LEPA)

Arrival

Time 2026-05-06 15:38
Airport Hannover Airport (EDDV)
Time Latitude Longitude Altitude Speed Heading
2026-05-06 13:16 39.55084 2.72834 5 ft 0 kts 186°
2026-05-06 13:23 39.55085 2.72834 5 ft 0 kts 186°
2026-05-06 13:24 39.55085 2.72835 32 ft 0 kts 186°
2026-05-06 13:33 39.55092 2.72836 32 ft 4 kts 185°
2026-05-06 13:33 39.55119 2.72836 32 ft 4 kts 169°
2026-05-06 13:34 39.55140 2.72823 32 ft 4 kts 122°
2026-05-06 13:34 39.55139 2.72803 32 ft 4 kts 58°
2026-05-06 13:34 39.55126 2.72775 32 ft 2 kts 58°
2026-05-06 13:34 39.55125 2.72773 32 ft 0 kts 58°
2026-05-06 13:37 39.55126 2.72775 32 ft 1 kts 58°
2026-05-06 13:37 39.55140 2.72804 32 ft 7 kts 58°
2026-05-06 13:37 39.55170 2.72868 25 ft 10 kts 58°
2026-05-06 13:38 39.55208 2.72948 32 ft 11 kts 58°
2026-05-06 13:38 39.55253 2.73044 32 ft 14 kts 59°
2026-05-06 13:38 39.55315 2.73173 32 ft 19 kts 58°
2026-05-06 13:38 39.55390 2.73330 32 ft 21 kts 58°
2026-05-06 13:39 39.55470 2.73499 32 ft 22 kts 59°
2026-05-06 13:39 39.55496 2.73597 32 ft 5 kts 131°
2026-05-06 13:39 39.55441 2.73643 32 ft 15 kts 148°
2026-05-06 13:39 39.55330 2.73731 32 ft 21 kts 149°
2026-05-06 13:40 39.55198 2.73835 32 ft 23 kts 149°
2026-05-06 13:40 39.55060 2.73945 32 ft 24 kts 150°
2026-05-06 13:40 39.54916 2.74058 32 ft 25 kts 150°
2026-05-06 13:40 39.54788 2.74125 32 ft 12 kts 226°
2026-05-06 13:41 39.54738 2.74016 32 ft 19 kts 239°
2026-05-06 13:41 39.54653 2.73834 32 ft 27 kts 238°
2026-05-06 13:41 39.54560 2.73637 32 ft 25 kts 240°
2026-05-06 13:41 39.54467 2.73443 32 ft 26 kts 237°
2026-05-06 13:42 39.54370 2.73237 32 ft 27 kts 237°
2026-05-06 13:42 39.54272 2.73060 32 ft 16 kts 197°
2026-05-06 13:42 39.54221 2.73120 32 ft 10 kts 96°
2026-05-06 13:42 39.54214 2.73237 32 ft 17 kts 94°
2026-05-06 13:43 39.54238 2.73405 32 ft 21 kts 59°
2026-05-06 13:43 39.54364 2.73672 32 ft 67 kts 58°
2026-05-06 13:43 39.54740 2.74467 33 ft 137 kts 58°
2026-05-06 13:43 39.55340 2.75696 220 ft 175 kts 60°
2026-05-06 13:44 39.55968 2.77057 1095 ft 174 kts 63°
2026-05-06 13:44 39.56580 2.78420 1886 ft 180 kts 61°
2026-05-06 13:44 39.57245 2.79889 2368 ft 199 kts 60°
2026-05-06 13:44 39.57983 2.81501 2794 ft 223 kts 60°
2026-05-06 13:45 39.58772 2.83211 3780 ft 217 kts 59°
2026-05-06 13:45 39.60376 2.86681 5459 ft 228 kts 59°
2026-05-06 13:45 39.61207 2.88481 6258 ft 237 kts 59°
2026-05-06 13:46 39.62058 2.90331 7087 ft 241 kts 60°
2026-05-06 13:46 39.62902 2.92270 7623 ft 259 kts 60°
2026-05-06 13:46 39.63816 2.94383 8193 ft 274 kts 60°
2026-05-06 13:46 39.64773 2.96598 8786 ft 290 kts 60°
2026-05-06 13:47 39.65778 2.98927 9480 ft 298 kts 60°
2026-05-06 13:47 39.66800 3.01294 10258 ft 305 kts 60°
2026-05-06 13:47 39.67867 3.03770 10653 ft 324 kts 60°
2026-05-06 13:47 39.69005 3.06414 10999 ft 343 kts 60°
2026-05-06 13:48 39.70195 3.09179 11475 ft 357 kts 60°
2026-05-06 13:48 39.71417 3.12019 12182 ft 362 kts 60°
2026-05-06 13:48 39.72654 3.14899 12888 ft 369 kts 60°
2026-05-06 13:48 39.73912 3.17830 13614 ft 374 kts 60°
2026-05-06 13:49 39.75187 3.20805 14260 ft 379 kts 60°
2026-05-06 13:49 39.76460 3.23778 14918 ft 384 kts 60°
2026-05-06 13:49 39.77863 3.26760 15511 ft 389 kts 51°
2026-05-06 13:49 39.79637 3.29426 16195 ft 392 kts 47°
2026-05-06 13:50 39.81440 3.32115 16793 ft 397 kts 48°
2026-05-06 13:50 39.83266 3.34850 17431 ft 402 kts 48°
2026-05-06 13:50 39.85106 3.37610 18045 ft 406 kts 48°
2026-05-06 13:50 39.86964 3.40402 18587 ft 411 kts 48°
2026-05-06 13:51 39.88851 3.43241 19115 ft 415 kts 48°
2026-05-06 13:51 39.90746 3.46094 19638 ft 418 kts 48°
2026-05-06 13:51 39.92660 3.48978 20147 ft 422 kts 48°
2026-05-06 13:51 39.94593 3.51894 20659 ft 426 kts 48°
2026-05-06 13:52 39.96537 3.54830 21158 ft 430 kts 48°
2026-05-06 13:52 39.98478 3.57763 21656 ft 434 kts 48°
2026-05-06 13:52 40.00461 3.60763 22128 ft 439 kts 48°
2026-05-06 13:52 40.02463 3.63794 22619 ft 443 kts 48°
2026-05-06 13:53 40.04480 3.66851 23106 ft 446 kts 49°
2026-05-06 13:53 40.06512 3.69933 23572 ft 450 kts 49°
2026-05-06 13:53 40.08563 3.73048 23961 ft 453 kts 49°
2026-05-06 13:53 40.10625 3.76183 24381 ft 456 kts 49°
2026-05-06 13:54 40.12702 3.79344 24771 ft 459 kts 49°
2026-05-06 13:54 40.14790 3.82526 25164 ft 462 kts 49°
2026-05-06 13:54 40.16883 3.85718 25541 ft 465 kts 49°
2026-05-06 13:54 40.19000 3.88948 25943 ft 467 kts 49°
2026-05-06 13:55 40.21120 3.92188 26294 ft 471 kts 49°
2026-05-06 13:55 40.23259 3.95460 26650 ft 474 kts 49°
2026-05-06 13:55 40.25408 3.98750 27023 ft 477 kts 49°
2026-05-06 13:55 40.27566 4.02059 27378 ft 479 kts 49°
2026-05-06 13:56 40.29739 4.05393 27729 ft 482 kts 49°
2026-05-06 13:56 40.31921 4.08745 28090 ft 485 kts 49°
2026-05-06 13:56 40.34114 4.12118 28420 ft 487 kts 49°
2026-05-06 13:56 40.36315 4.15507 28756 ft 490 kts 49°
2026-05-06 13:57 40.38529 4.18920 29087 ft 493 kts 49°
2026-05-06 13:57 40.40752 4.22353 29464 ft 494 kts 49°
2026-05-06 13:57 40.42988 4.25805 29699 ft 499 kts 49°
2026-05-06 13:57 40.45216 4.29246 30012 ft 501 kts 49°
2026-05-06 13:58 40.47538 4.32682 30261 ft 502 kts 41°
2026-05-06 13:58 40.50287 4.35463 30534 ft 498 kts 27°
2026-05-06 13:58 40.53438 4.37265 30730 ft 491 kts 10°
2026-05-06 13:58 40.56762 4.38202 30966 ft 489 kts
2026-05-06 13:59 40.60121 4.39054 31201 ft 492 kts
2026-05-06 13:59 40.63490 4.39881 31472 ft 493 kts
2026-05-06 13:59 40.66875 4.40696 31732 ft 495 kts
2026-05-06 13:59 40.70271 4.41509 31990 ft 497 kts
2026-05-06 14:00 40.73681 4.42327 32309 ft 497 kts
2026-05-06 14:00 40.77080 4.43144 32665 ft 497 kts
2026-05-06 14:00 40.80480 4.43962 33022 ft 496 kts
2026-05-06 14:00 40.83873 4.44779 33383 ft 496 kts
2026-05-06 14:01 40.87263 4.45596 33691 ft 496 kts
2026-05-06 14:01 40.90660 4.46417 33954 ft 497 kts
2026-05-06 14:01 40.97454 4.48063 33954 ft 494 kts
2026-05-06 14:02 41.04184 4.49697 33959 ft 494 kts
2026-05-06 14:02 41.10962 4.51345 33958 ft 496 kts
2026-05-06 14:03 41.17752 4.52999 33968 ft 496 kts
2026-05-06 14:03 41.24547 4.54658 33954 ft 496 kts
2026-05-06 14:04 41.31345 4.56321 33958 ft 497 kts
2026-05-06 14:04 41.38146 4.57988 33951 ft 497 kts
2026-05-06 14:05 41.44962 4.59663 33960 ft 498 kts
2026-05-06 14:05 41.51787 4.61344 33960 ft 499 kts
2026-05-06 14:06 41.58624 4.63030 33955 ft 499 kts
2026-05-06 14:06 41.65408 4.64708 33960 ft 499 kts
2026-05-06 14:07 41.72231 4.66564 33945 ft 506 kts 14°
2026-05-06 14:07 41.75425 4.68560 33953 ft 511 kts 28°
2026-05-06 14:07 41.78507 4.70975 33940 ft 514 kts 27°
2026-05-06 14:08 41.84688 4.75814 33958 ft 514 kts 28°
2026-05-06 14:08 41.90834 4.80744 33974 ft 515 kts 28°
2026-05-06 14:09 41.96974 4.85698 33953 ft 515 kts 28°
2026-05-06 14:09 42.03121 4.90670 33953 ft 515 kts 28°
2026-05-06 14:10 42.09216 4.95612 33962 ft 515 kts 28°
2026-05-06 14:10 42.15380 5.00622 33954 ft 518 kts 28°
2026-05-06 14:11 42.21547 5.05644 33952 ft 518 kts 28°
2026-05-06 14:11 42.27712 5.10677 33953 ft 518 kts 28°
2026-05-06 14:12 42.33880 5.15725 33949 ft 518 kts 29°
2026-05-06 14:12 42.40050 5.20785 33948 ft 519 kts 29°
2026-05-06 14:13 42.46216 5.25854 33947 ft 519 kts 29°
2026-05-06 14:13 42.52347 5.30907 33960 ft 518 kts 29°
2026-05-06 14:14 42.58509 5.35997 33923 ft 520 kts 29°
2026-05-06 14:14 42.64693 5.41115 33941 ft 521 kts 29°
2026-05-06 14:15 42.70878 5.46248 33942 ft 521 kts 29°
2026-05-06 14:15 42.77065 5.51394 33938 ft 521 kts 29°
2026-05-06 14:16 42.83211 5.56519 33936 ft 520 kts 29°
2026-05-06 14:16 42.89384 5.61678 33965 ft 520 kts 30°
2026-05-06 14:17 42.95560 5.66851 33939 ft 520 kts 30°
2026-05-06 14:17 43.01705 5.72012 33893 ft 520 kts 30°
2026-05-06 14:18 43.07886 5.77214 33923 ft 522 kts 30°
2026-05-06 14:18 43.14067 5.82430 33918 ft 521 kts 30°
2026-05-06 14:19 43.20239 5.87651 33910 ft 521 kts 30°
2026-05-06 14:19 43.26413 5.92884 33897 ft 521 kts 30°
2026-05-06 14:20 43.32570 5.98115 33888 ft 522 kts 30°
2026-05-06 14:20 43.38858 6.03039 33851 ft 515 kts 16°
2026-05-06 14:21 43.42287 6.04191 33890 ft 503 kts
2026-05-06 14:21 43.45773 6.04624 33883 ft 504 kts 359°
2026-05-06 14:21 43.52751 6.05388 33890 ft 503 kts 359°
2026-05-06 14:22 43.58557 6.05973 33886 ft 503 kts 359°
2026-05-06 14:22 43.65541 6.06677 33875 ft 503 kts 359°
2026-05-06 14:23 43.72528 6.07384 33873 ft 503 kts 359°
2026-05-06 14:23 43.79360 6.09576 33840 ft 514 kts 23°
2026-05-06 14:24 43.85877 6.13850 33881 ft 520 kts 23°
2026-05-06 14:24 43.92377 6.18229 33882 ft 519 kts 24°
2026-05-06 14:25 43.98810 6.22622 33883 ft 519 kts 24°
2026-05-06 14:25 44.05289 6.27064 33884 ft 519 kts 24°
2026-05-06 14:26 44.11753 6.31506 33884 ft 517 kts 24°
2026-05-06 14:26 44.18198 6.35944 33902 ft 517 kts 24°
2026-05-06 14:27 44.24643 6.40393 33918 ft 517 kts 24°
2026-05-06 14:27 44.31067 6.44838 33898 ft 514 kts 24°
2026-05-06 14:28 44.37499 6.49298 33889 ft 519 kts 24°
2026-05-06 14:28 44.43981 6.53806 33940 ft 520 kts 25°
2026-05-06 14:29 44.50435 6.58304 33875 ft 516 kts 25°
2026-05-06 14:29 44.56862 6.62793 33902 ft 516 kts 25°
2026-05-06 14:30 44.63299 6.67300 33898 ft 517 kts 25°
2026-05-06 14:30 44.69721 6.71810 33864 ft 515 kts 25°
2026-05-06 14:31 44.76108 6.76300 33865 ft 517 kts 24°
2026-05-06 14:31 44.79433 6.78123 33855 ft 510 kts
2026-05-06 14:31 44.82907 6.78711 33875 ft 498 kts 355°
2026-05-06 14:32 44.89807 6.78382 33911 ft 497 kts 353°
2026-05-06 14:32 44.96713 6.77952 33860 ft 494 kts 352°
2026-05-06 14:33 45.03604 6.77496 33891 ft 498 kts 352°
2026-05-06 14:33 45.10509 6.77038 33863 ft 495 kts 353°
2026-05-06 14:34 45.17404 6.76581 33876 ft 496 kts 353°
2026-05-06 14:34 45.24275 6.76123 33912 ft 498 kts 353°
2026-05-06 14:35 45.31204 6.75662 33908 ft 497 kts 353°
2026-05-06 14:35 45.38127 6.75199 33926 ft 497 kts 353°
2026-05-06 14:36 45.45078 6.75443 33893 ft 505 kts 12°
2026-05-06 14:36 45.48338 6.77121 33936 ft 508 kts 26°
2026-05-06 14:36 45.51475 6.79618 33915 ft 511 kts 28°
2026-05-06 14:37 45.57646 6.84595 33947 ft 513 kts 30°
2026-05-06 14:37 45.63800 6.89689 33918 ft 511 kts 30°
2026-05-06 14:38 45.69939 6.94804 33902 ft 510 kts 30°
2026-05-06 14:38 45.76086 6.99942 33911 ft 511 kts 30°
2026-05-06 14:39 45.82202 7.05066 33874 ft 508 kts 30°
2026-05-06 14:39 45.88301 7.10193 33892 ft 509 kts 30°
2026-05-06 14:40 45.94426 7.15360 33852 ft 514 kts 30°
2026-05-06 14:40 46.00557 7.20543 33932 ft 513 kts 30°
2026-05-06 14:41 46.06726 7.25774 33884 ft 514 kts 30°
2026-05-06 14:41 46.12888 7.31013 33889 ft 515 kts 30°
2026-05-06 14:42 46.19044 7.36259 33899 ft 512 kts 30°
2026-05-06 14:42 46.25163 7.41489 33950 ft 513 kts 30°
2026-05-06 14:43 46.31273 7.46722 33898 ft 512 kts 30°
2026-05-06 14:43 46.37375 7.51964 33889 ft 510 kts 30°
2026-05-06 14:44 46.43475 7.57218 33853 ft 510 kts 30°
2026-05-06 14:45 46.52613 7.65116 33883 ft 509 kts 31°
2026-05-06 14:45 46.58665 7.70374 33887 ft 510 kts 32°
2026-05-06 14:46 46.64673 7.75833 34113 ft 510 kts 32°
2026-05-06 14:46 46.67688 7.78564 34370 ft 510 kts 32°
2026-05-06 14:46 46.70697 7.81292 34676 ft 509 kts 32°
2026-05-06 14:46 46.73700 7.84023 34906 ft 509 kts 32°
2026-05-06 14:47 46.76706 7.86756 34911 ft 508 kts 32°
2026-05-06 14:47 46.82685 7.92206 34913 ft 506 kts 32°
2026-05-06 14:48 46.88665 7.97670 34906 ft 506 kts 32°
2026-05-06 14:48 46.94621 8.03129 34894 ft 503 kts 32°
2026-05-06 14:49 47.00549 8.08574 34887 ft 502 kts 32°
2026-05-06 14:49 47.06467 8.14026 34887 ft 502 kts 32°
2026-05-06 14:50 47.12386 8.19495 34877 ft 502 kts 32°
2026-05-06 14:50 47.18301 8.24971 34877 ft 502 kts 32°
2026-05-06 14:51 47.24209 8.30458 34864 ft 503 kts 32°
2026-05-06 14:51 47.30132 8.35973 34883 ft 504 kts 32°
2026-05-06 14:52 47.36032 8.41480 34870 ft 505 kts 32°
2026-05-06 14:52 47.41947 8.47018 34888 ft 505 kts 32°
2026-05-06 14:53 47.47877 8.52584 34883 ft 505 kts 32°
2026-05-06 14:53 47.53813 8.58171 34881 ft 506 kts 33°
2026-05-06 14:54 47.59746 8.63771 34900 ft 506 kts 33°
2026-05-06 14:54 47.65681 8.69387 34849 ft 506 kts 33°
2026-05-06 14:55 47.71612 8.75017 34883 ft 506 kts 33°
2026-05-06 14:55 47.77534 8.80650 34859 ft 505 kts 33°
2026-05-06 14:56 47.83422 8.86268 34857 ft 505 kts 33°
2026-05-06 14:56 47.89341 8.91932 34828 ft 505 kts 33°
2026-05-06 14:57 47.95258 8.97608 34845 ft 505 kts 33°
2026-05-06 14:57 48.01172 9.03297 34854 ft 505 kts 33°
2026-05-06 14:58 48.07079 9.08994 34836 ft 505 kts 33°
2026-05-06 14:58 48.12987 9.14706 34834 ft 505 kts 33°
2026-05-06 14:58 48.16013 9.17213 34795 ft 503 kts 20°
2026-05-06 14:59 48.19369 9.18573 34825 ft 497 kts
2026-05-06 14:59 48.26259 9.19872 34809 ft 499 kts
2026-05-06 15:00 48.33151 9.21057 34823 ft 498 kts
2026-05-06 15:00 48.40049 9.22221 34819 ft 498 kts
2026-05-06 15:01 48.46937 9.23389 34818 ft 498 kts
2026-05-06 15:01 48.53828 9.24559 34813 ft 498 kts
2026-05-06 15:02 48.60711 9.25729 34793 ft 497 kts
2026-05-06 15:02 48.67603 9.26773 34797 ft 498 kts
2026-05-06 15:03 48.74490 9.27825 34798 ft 498 kts
2026-05-06 15:03 48.81336 9.28876 34799 ft 498 kts
2026-05-06 15:04 48.88239 9.29937 34823 ft 498 kts
2026-05-06 15:04 48.95131 9.31001 34808 ft 498 kts
2026-05-06 15:05 49.02006 9.32065 34794 ft 498 kts
2026-05-06 15:05 49.08906 9.33135 34785 ft 498 kts
2026-05-06 15:06 49.15800 9.34208 34807 ft 498 kts
2026-05-06 15:06 49.22705 9.35285 34808 ft 499 kts
2026-05-06 15:07 49.29563 9.36359 34815 ft 498 kts
2026-05-06 15:07 49.36426 9.37436 34791 ft 493 kts
2026-05-06 15:08 49.43234 9.38507 34790 ft 490 kts
2026-05-06 15:08 49.50027 9.39579 34788 ft 491 kts
2026-05-06 15:09 49.56818 9.40653 34787 ft 491 kts
2026-05-06 15:09 49.63609 9.41731 34783 ft 489 kts
2026-05-06 15:10 49.70375 9.42809 34784 ft 489 kts
2026-05-06 15:10 49.77143 9.43889 34775 ft 489 kts
2026-05-06 15:11 49.82771 9.44791 34795 ft 488 kts
2026-05-06 15:11 49.89494 9.45868 34769 ft 485 kts
2026-05-06 15:12 49.96209 9.46950 34776 ft 485 kts
2026-05-06 15:12 50.02934 9.48035 34765 ft 485 kts
2026-05-06 15:13 50.09581 9.49133 34761 ft 482 kts
2026-05-06 15:13 50.16252 9.50246 34767 ft 482 kts
2026-05-06 15:14 50.22932 9.51366 34762 ft 482 kts
2026-05-06 15:14 50.29607 9.52486 34761 ft 483 kts
2026-05-06 15:15 50.36302 9.53614 34757 ft 484 kts
2026-05-06 15:15 50.43001 9.54745 34755 ft 484 kts
2026-05-06 15:16 50.49651 9.55872 34765 ft 484 kts
2026-05-06 15:16 50.56364 9.57011 34752 ft 485 kts
2026-05-06 15:17 50.63082 9.58156 34748 ft 485 kts
2026-05-06 15:17 50.69798 9.59303 34746 ft 485 kts
2026-05-06 15:18 50.76506 9.60562 34733 ft 484 kts
2026-05-06 15:18 50.79834 9.61205 34157 ft 482 kts
2026-05-06 15:18 50.83173 9.61846 33305 ft 485 kts
2026-05-06 15:18 50.86536 9.62428 32474 ft 484 kts
2026-05-06 15:19 50.89875 9.62028 31487 ft 482 kts 345°
2026-05-06 15:19 50.93164 9.60952 30711 ft 482 kts 348°
2026-05-06 15:19 50.96452 9.60049 30229 ft 475 kts 348°
2026-05-06 15:19 50.99653 9.59202 29800 ft 468 kts 348°
2026-05-06 15:20 51.02849 9.58377 29175 ft 464 kts 348°
2026-05-06 15:20 51.06022 9.57567 28635 ft 458 kts 348°
2026-05-06 15:20 51.09132 9.56776 28129 ft 452 kts 348°
2026-05-06 15:20 51.12230 9.55987 27609 ft 448 kts 348°
2026-05-06 15:21 51.15297 9.55204 27082 ft 443 kts 348°
2026-05-06 15:21 51.18323 9.54431 26591 ft 439 kts 348°
2026-05-06 15:21 51.21332 9.53663 26112 ft 436 kts 348°
2026-05-06 15:21 51.24316 9.52900 25600 ft 433 kts 348°
2026-05-06 15:22 51.27279 9.52139 25114 ft 429 kts 348°
2026-05-06 15:22 51.30219 9.51384 24623 ft 426 kts 348°
2026-05-06 15:22 51.33135 9.50635 24168 ft 422 kts 348°
2026-05-06 15:22 51.35991 9.49901 23706 ft 420 kts 348°
2026-05-06 15:23 51.38861 9.49161 23220 ft 417 kts 348°
2026-05-06 15:23 51.41714 9.48425 22700 ft 414 kts 348°
2026-05-06 15:23 51.44546 9.47695 22249 ft 409 kts 349°
2026-05-06 15:23 51.47345 9.46971 21802 ft 405 kts 349°
2026-05-06 15:24 51.50114 9.46253 21371 ft 401 kts 349°
2026-05-06 15:24 51.52856 9.45542 20947 ft 397 kts 349°
2026-05-06 15:24 51.55578 9.44835 20531 ft 394 kts 348°
2026-05-06 15:24 51.58271 9.44136 20118 ft 390 kts 348°
2026-05-06 15:25 51.60941 9.43441 19711 ft 387 kts 348°
2026-05-06 15:25 51.63593 9.42751 19311 ft 384 kts 348°
2026-05-06 15:25 51.66227 9.42068 18915 ft 382 kts 348°
2026-05-06 15:25 51.68863 9.41777 18694 ft 376 kts 354°
2026-05-06 15:26 51.71450 9.41093 17954 ft 380 kts 345°
2026-05-06 15:26 51.74020 9.40238 17160 ft 384 kts 347°
2026-05-06 15:26 51.76655 9.39457 16340 ft 388 kts 347°
2026-05-06 15:26 51.79317 9.38708 15560 ft 388 kts 348°
2026-05-06 15:27 51.81975 9.37982 14834 ft 387 kts 348°
2026-05-06 15:27 51.84634 9.37270 14097 ft 388 kts 349°
2026-05-06 15:27 51.87301 9.36563 13343 ft 388 kts 349°
2026-05-06 15:27 51.89964 9.35859 12541 ft 387 kts 349°
2026-05-06 15:28 51.92625 9.35155 11774 ft 387 kts 348°
2026-05-06 15:28 51.95280 9.34453 11073 ft 385 kts 348°
2026-05-06 15:28 51.97890 9.33762 10635 ft 375 kts 348°
2026-05-06 15:28 52.00412 9.33095 10497 ft 357 kts 348°
2026-05-06 15:29 52.02803 9.32460 10379 ft 341 kts 348°
2026-05-06 15:29 52.05103 9.31849 10218 ft 328 kts 347°
2026-05-06 15:29 52.07312 9.31260 10049 ft 315 kts 347°
2026-05-06 15:29 52.09446 9.30692 9784 ft 308 kts 347°
2026-05-06 15:30 52.11542 9.30132 9419 ft 304 kts 347°
2026-05-06 15:30 52.13631 9.29573 9069 ft 303 kts 347°
2026-05-06 15:30 52.15704 9.29018 8737 ft 301 kts 347°
2026-05-06 15:30 52.17765 9.28468 8433 ft 300 kts 348°
2026-05-06 15:31 52.19789 9.27926 8115 ft 298 kts 348°
2026-05-06 15:31 52.21830 9.27381 7796 ft 297 kts 350°
2026-05-06 15:31 52.23890 9.27517 7375 ft 301 kts 15°
2026-05-06 15:32 52.27758 9.30257 6548 ft 302 kts 24°
2026-05-06 15:32 52.29657 9.31653 6140 ft 297 kts 24°
2026-05-06 15:32 52.31519 9.33031 5725 ft 291 kts 24°
2026-05-06 15:32 52.33340 9.34383 5321 ft 284 kts 25°
2026-05-06 15:33 52.35109 9.35699 4951 ft 275 kts 25°
2026-05-06 15:33 52.36825 9.36977 4593 ft 267 kts 25°
2026-05-06 15:33 52.38479 9.38212 4291 ft 252 kts 25°
2026-05-06 15:33 52.40039 9.39376 3941 ft 242 kts 27°
2026-05-06 15:34 52.41551 9.40506 3583 ft 236 kts 27°
2026-05-06 15:34 52.43020 9.41603 3297 ft 228 kts 28°
2026-05-06 15:34 52.44428 9.42675 3057 ft 217 kts 32°
2026-05-06 15:34 52.45451 9.44284 2862 ft 201 kts 62°
2026-05-06 15:35 52.45919 9.46363 2679 ft 191 kts 78°
2026-05-06 15:35 52.46038 9.48498 2481 ft 190 kts 88°
2026-05-06 15:35 52.45987 9.50604 2246 ft 179 kts 91°
2026-05-06 15:35 52.45925 9.52549 2043 ft 160 kts 90°
2026-05-06 15:36 52.45875 9.54256 1865 ft 141 kts 90°
2026-05-06 15:36 52.45830 9.55849 1674 ft 139 kts 89°
2026-05-06 15:36 52.45787 9.57427 1478 ft 139 kts 90°
2026-05-06 15:36 52.45744 9.59010 1284 ft 140 kts 90°
2026-05-06 15:37 52.45698 9.60602 1081 ft 140 kts 90°
2026-05-06 15:37 52.45649 9.62217 871 ft 144 kts 90°
2026-05-06 15:37 52.45597 9.63867 687 ft 146 kts 89°
2026-05-06 15:37 52.45555 9.65536 503 ft 146 kts 91°
2026-05-06 15:38 52.45508 9.67205 282 ft 147 kts 90°
2026-05-06 15:38 52.45468 9.68791 182 ft 121 kts 92°
2026-05-06 15:38 52.45439 9.69800 184 ft 57 kts 93°
2026-05-06 15:38 52.45424 9.70335 183 ft 29 kts 92°
2026-05-06 15:39 52.45419 9.70603 184 ft 18 kts 77°
2026-05-06 15:39 52.45525 9.70669 181 ft 19 kts
2026-05-06 15:39 52.45583 9.70574 181 ft 11 kts 268°
2026-05-06 15:39 52.45586 9.70420 181 ft 18 kts 273°
2026-05-06 15:40 52.45594 9.70172 181 ft 24 kts 273°
2026-05-06 15:40 52.45598 9.69947 181 ft 18 kts 271°
2026-05-06 15:40 52.45657 9.69808 181 ft 14 kts 311°
2026-05-06 15:40 52.45702 9.69712 181 ft 4 kts 346°
2026-05-06 15:41 52.45737 9.69703 181 ft 5 kts 354°
2026-05-06 15:41 52.45746 9.69702 181 ft 0 kts 354°